Regional Weather Roundup
Issued by NWS

Home | Current Version | Previous Version | Graphics & Text | Print | Product List | Glossary Off
Versions: 1 2 3 4 5 6 7 8 9 10 11 12 13 14 15 16 17 18 19 20 21 22 23 24 25 26 27

000
ASUS43 KDMX 231407
RWRIA

WEATHER ROUNDUP FOR IOWA
NATIONAL WEATHER SERVICE DES MOINES IA
900 AM CDT WED APR 23 2014

NOTE: "FAIR" INDICATES FEW OR NO CLOUDS BELOW 12,000 FEET WITH NO
SIGNIFICANT WEATHER AND/OR OBSTRUCTIONS TO VISIBILITY.

* - THESE STATIONS ARE NOT NWS STATIONS...THUS NOT UNDER NWS
QUALITY CONTROL.  THEY ALSO DO NOT REPORT WEATHER SUCH
AS PRECIPITATION OR FOG.

IAZ001>003-012>014-020>022-031>034-043>046-231500-
   NORTHWEST IOWA

CITY           SKY/WX    TMP DP  RH WIND       PRES   REMARKS
CARROLL *      PTSUNNY   52  30  43 SE26      29.99S
CHEROKEE *     CLOUDY    48  36  61 SE17G23   29.95F
DENISON *      CLOUDY    50  32  50 SE17G29   29.93F
LE MARS *      CLOUDY    50  37  62 SE17G28   29.87F
ORANGE CITY *  LGT RAIN  48  37  66 SE18G26   29.88F
SHELDON *      PTSUNNY   46  36  66 SE23G32   29.90F
SIOUX CITY     CLOUDY    50  40  68 SE20      29.86F
SPENCER        CLOUDY    48  30  49 SE18      29.97F
STORM LAKE *   CLOUDY    48  32  53 SE20G29   29.96R
$$

IAZ055>058-069>071-079>083-090>094-231500-
   SOUTHWEST IOWA

CITY           SKY/WX    TMP DP  RH WIND       PRES   REMARKS
ATLANTIC *     PTSUNNY   52  32  46 SE15      29.98F
AUDUBON *      LGT RAIN  52  28  40 SE14G22   30.00S
CLARINDA *     CLOUDY    54  34  47 SE12      30.01S
COUNCIL BLFS * CLOUDY    46  43  87 SE22G30   29.91F
CRESTON *      CLOUDY    52  32  46 SE18      30.01F HAZE
HARLAN  *      PTSUNNY   52  34  50 SE14G26   29.98F
LAMONI         CLOUDY    50  32  50 SE12G20   30.03F
RED OAK *      CLOUDY    50  37  62 SE9       29.99S
SHENANDOAH *   LGT RAIN  50  39  66 SE14G22   29.98S
$$

IAZ047>049-059>061-072>074-084-231500-
   CENTRAL IOWA

CITY           SKY/WX    TMP DP  RH WIND       PRES   REMARKS
AMES           CLOUDY    49  31  49 SE17G26   30.05F
ANKENY *       PTSUNNY   48  34  57 E13       30.06F
CHARITON *     CLOUDY    50  34  53 SE12G18   30.06F
DES MOINES     CLOUDY    51  32  48 SE12      30.05F
GRINNELL*      CLOUDY    45  32  61 SE15      30.12R
KNOXVILLE *    CLOUDY    48  32  53 SE15      30.06F
MARSHALLTOWN   CLOUDY    44  32  62 SE21      30.10R
NEWTON *       PTSUNNY   46  32  57 SE17G23   30.10F
PELLA *        CLOUDY    46  36  66 SE13      30.10F
PERRY *        CLOUDY    52  28  40 SE20      30.02F
$$

IAZ004>006-015-016-023>025-035-036-231500-
   NORTH CENTRAL IOWA

CITY           SKY/WX    TMP DP  RH WIND       PRES   REMARKS
ALGONA *       PTSUNNY   48  30  49 SE22      30.03S
CLARION *      PTSUNNY   46  30  53 SE23      30.04F
ESTHERVILLE    CLOUDY    45  33  63 SE24G31   29.99F
FORT DODGE *   CLOUDY    48  28  46 SE20      30.03R
MASON CITY     CLOUDY    44  33  65 SE16      30.09F
FOREST CITY *  CLOUDY    45  32  61 SE16G22   30.05F
IOWA FALLS *   CLOUDY    46  32  57 SE21      30.08F
$$

IAZ007>011-017>019-026>030-037>042-050>054-066-231500-
   NORTHEAST IOWA

CITY           SKY/WX    TMP DP  RH WIND       PRES   REMARKS
CEDAR RAPIDS   CLOUDY    44  31  60 SE13      30.13R
CHARLES CITY * CLOUDY    43  30  61 SE16G22   30.12S
CLINTON *      PTSUNNY   43  28  56 SE9       30.21R
DECORAH *      SUNNY     45  30  57 SE13G21   30.13S
DUBUQUE        PTSUNNY   41  30  65 SE8       30.16R
MONTICELLO *   PTSUNNY   43  30  61 SE9G17    30.17R
OELWEIN *      CLOUDY   N/A N/A N/A SE16      30.14F
WATERLOO       CLOUDY    44  30  57 SE10      30.13R
$$

IAZ064-065-067-068-078-231500-
   EAST CENTRAL IOWA

CITY           SKY/WX    TMP DP  RH WIND       PRES   REMARKS
DAVENPORT      PTSUNNY   44  29  55 SE14      30.17R
IOWA CITY      CLOUDY    44  31  60 SE10      30.17R
MT. PLEASANT * MOSUNNY   48  30  49 E14       30.15R
MUSCATINE *    MOSUNNY   46  30  53 SE9G18    30.17R
QUAD CITIES    MOSUNNY   45  31  58 E12       30.17R
$$

IAZ062-063-075>077-085>089-095>099-231500-
   SOUTHEAST IOWA

CITY           SKY/WX    TMP DP  RH WIND       PRES   REMARKS
BURLINGTON     MOSUNNY   45  31  58 SE13      30.15S
FAIRFIELD *    CLOUDY    45  30  57 SE17      30.12F
FORT MADISON * MOSUNNY   45  32  61 SE10      30.16R
KEOKUK *       PTSUNNY   45  32  61 SE13      30.14R
OSKALOOSA *    PTSUNNY   46  34  61 SE21      30.13R
CENTERVILLE *  MOSUNNY   46  36  66 E14       30.09F
OTTUMWA        CLOUDY    47  33  58 SE13      30.13R
WASHINGTON *   SUNNY     46  30  53 SE15G23   30.14S
$$

ABBREVIATIONS USED IN REMARKS
   TC - TEMPERATURES IN CELSIUS
  WCI - WIND CHILL INDEX
   HX - HEAT INDEX
  VSB - VISIBILITY
$$




USA.gov is the U.S. government's official web portal to all federal, state and local government web resources and services.